QPF
0.07 0.07 0.05 0.05 0.06 0.06 0.07 0.09 0.08 0.06 0.06 0.06 0.05 0.04 0.04 0.05 0.07 0.05 0.04 0.05 0.03 0.02 0.02 0.03 0.04 0.05 0.07 0.08 0.07 0.07 0.06 0.04 0.04 0.04 0.05 0.05 0.06 0.08
0.08 0.08 0.07 0.06 0.08 0.08 0.09 0.10 0.11 0.08 0.05 0.04 0.05 0.04 0.04 0.04 0.06 0.04 0.04 0.04 0.03 0.02 0.02 0.03 0.04 0.05 0.05 0.05 0.04 0.04 0.03 0.03 0.04 0.04 0.03 0.03 0.03 0.04
0.10 0.10 0.07 0.08 0.10 0.10 0.09 0.10 0.10 0.06 0.04 0.04 0.03 0.04 0.05 0.04 0.05 0.03 0.03 0.04 0.03 0.02 0.02 0.01 0.02 0.02 0.03 0.03 0.02 0.02 0.02 0.03 0.03 0.03 0.03 0.02 0.02 0.03
0.09 0.12 0.13 0.11 0.10 0.11 0.11 0.10 0.08 0.06 0.05 0.04 0.04 0.05 0.05 0.04 0.04 0.03 0.02 0.03 0.03 0.03 0.02 0.01 0.01 0.01 0.01 0.02 0.02 0.01 0.01 0.01 0.01 0.01 0.02 0.02 0.04 0.03
0.06 0.08 0.10 0.11 0.10 0.10 0.10 0.10 0.09 0.06 0.06 0.05 0.04 0.05 0.05 0.05 0.05 0.04 0.03 0.04 0.03 0.03 0.04 0.03 0.02 0.01 0.01 0.01 0.01 0.02 0.01 0.01 0.01 0.01 0.02 0.02 0.02 0.01
0.06 0.07 0.09 0.09 0.09 0.09 0.09 0.10 0.09 0.08 0.07 0.06 0.04 0.04 0.04 0.06 0.07 0.06 0.05 0.05 0.04 0.03 0.04 0.04 0.02 0.02 0.02 0.02 0.02 0.02 0.01 0.01 0.01 0.01 0.01 0.01 0.00 0.00
0.07 0.06 0.08 0.09 0.09 0.09 0.08 0.08 0.09 0.09 0.08 0.07 0.05 0.05 0.04 0.05 0.05 0.06 0.07 0.06 0.06 0.05 0.06 0.04 0.03 0.02 0.02 0.01 0.02 0.02 0.02 0.01 0.01 0.00 0.00 0.00 0.00 0.00
0.08 0.08 0.07 0.07 0.07 0.06 0.05 0.05 0.08 0.08 0.07 0.06 0.06 0.05 0.05 0.05 0.07 0.08 0.09 0.08 0.06 0.04 0.06 0.06 0.04 0.04 0.03 0.03 0.02 0.03 0.02 0.01 0.01 0.01 0.00 0.00 0.00 0.00
0.09 0.08 0.07 0.06 0.06 0.06 0.05 0.05 0.04 0.04 0.05 0.06 0.05 0.05 0.05 0.07 0.08 0.09 0.09 0.09 0.09 0.08 0.09 0.07 0.06 0.06 0.05 0.03 0.03 0.02 0.02 0.02 0.01 0.01 0.01 0.01 0.01 0.01
0.09 0.09 0.08 0.06 0.05 0.06 0.08 0.07 0.05 0.04 0.04 0.04 0.04 0.03 0.03 0.05 0.07 0.07 0.08 0.08 0.08 0.09 0.11 0.09 0.07 0.07 0.04 0.03 0.03 0.02 0.02 0.02 0.02 0.02 0.01 0.01 0.01 0.02
0.11 0.10 0.09 0.07 0.06 0.04 0.06 0.07 0.06 0.05 0.05 0.05 0.05 0.04 0.04 0.05 0.05 0.07 0.08 0.08 0.06 0.06 0.07 0.06 0.06 0.07 0.06 0.05 0.04 0.04 0.03 0.02 0.02 0.02 0.02 0.01 0.01 0.01
0.06 0.09 0.09 0.08 0.06 0.04 0.05 0.07 0.07 0.06 0.06 0.05 0.05 0.05 0.05 0.06 0.06 0.07 0.07 0.07 0.06 0.06 0.07 0.08 0.07 0.08 0.07 0.05 0.05 0.06 0.06 0.04 0.03 0.02 0.02 0.02 0.01 0.01
0.03 0.05 0.08 0.08 0.06 0.05 0.05 0.05 0.06 0.06 0.05 0.04 0.05 0.05 0.05 0.04 0.05 0.05 0.05 0.07 0.06 0.05 0.05 0.07 0.06 0.07 0.07 0.06 0.05 0.06 0.09 0.08 0.06 0.04 0.03 0.02 0.02 0.01
0.02 0.03 0.04 0.06 0.04 0.04 0.06 0.07 0.06 0.05 0.05 0.05 0.05 0.05 0.04 0.03 0.04 0.05 0.05 0.06 0.07 0.05 0.05 0.06 0.05 0.05 0.06 0.07 0.07 0.06 0.07 0.08 0.09 0.09 0.08 0.06 0.04 0.03
0.03 0.03 0.04 0.04 0.02 0.01 0.02 0.04 0.05 0.04 0.04 0.04 0.03 0.03 0.04 0.04 0.04 0.04 0.04 0.05 0.06 0.07 0.07 0.08 0.07 0.08 0.09 0.08 0.07 0.06 0.07 0.08 0.10 0.11 0.11 0.08 0.06 0.05
0.04 0.04 0.04 0.04 0.04 0.03 0.01 0.01 0.01 0.02 0.02 0.02 0.03 0.03 0.03 0.03 0.03 0.03 0.03 0.04 0.05 0.06 0.07 0.07 0.08 0.09 0.10 0.10 0.09 0.08 0.08 0.08 0.08 0.08 0.11 0.13 0.11 0.08
0.05 0.04 0.04 0.04 0.03 0.03 0.02 0.01 0.01 0.01 0.01 0.01 0.02 0.02 0.02 0.02 0.02 0.02 0.03 0.02 0.03 0.04 0.06 0.06 0.07 0.08 0.08 0.07 0.06 0.06 0.07 0.06 0.06 0.08 0.09 0.11 0.11 0.10
0.06 0.04 0.03 0.03 0.03 0.03 0.02 0.01 0.03 0.03 0.03 0.02 0.02 0.02 0.02 0.02 0.03 0.03 0.02 0.02 0.03 0.03 0.04 0.04 0.05 0.06 0.06 0.05 0.04 0.03 0.04 0.04 0.04 0.06 0.07 0.08 0.09 0.09
0.05 0.04 0.03 0.04 0.04 0.04 0.03 0.03 0.04 0.05 0.04 0.04 0.03 0.02 0.03 0.03 0.03 0.03 0.02 0.02 0.03 0.04 0.04 0.04 0.05 0.05 0.05 0.04 0.03 0.02 0.02 0.03 0.04 0.04 0.05 0.05 0.05 0.06
0.05 0.04 0.04 0.04 0.03 0.03 0.03 0.02 0.04 0.05 0.05 0.04 0.03 0.02 0.02 0.03 0.03 0.03 0.03 0.03 0.04 0.05 0.05 0.05 0.06 0.06 0.05 0.05 0.04 0.04 0.03 0.04 0.04 0.05 0.06 0.05 0.05 0.06
0.08 0.05 0.04 0.03 0.03 0.03 0.03 0.03 0.03 0.04 0.04 0.04 0.04 0.03 0.03 0.03 0.04 0.04 0.04 0.04 0.04 0.04 0.05 0.05 0.06 0.07 0.07 0.07 0.06 0.05 0.05 0.06 0.05 0.05 0.04 0.05 0.05 0.05
0.06 0.06 0.05 0.04 0.04 0.03 0.03 0.03 0.03 0.04 0.04 0.04 0.04 0.04 0.04 0.05 0.05 0.04 0.04 0.04 0.04 0.04 0.05 0.05 0.06 0.07 0.07 0.08 0.07 0.06 0.05 0.05 0.05 0.04 0.04 0.04 0.03 0.03
0.04 0.04 0.06 0.06 0.05 0.03 0.03 0.02 0.02 0.03 0.04 0.04 0.04 0.03 0.03 0.03 0.05 0.06 0.05 0.04 0.04 0.04 0.05 0.05 0.06 0.06 0.05 0.06 0.06 0.05 0.04 0.03 0.03 0.02 0.02 0.02 0.02 0.03
MSLP
1012.91 1012.95 1013.05 1013.19 1013.34 1013.47 1013.54 1013.55 1013.46 1013.30 1013.08 1012.81 1012.52 1012.23 1011.95 1011.68 1011.42 1011.18 1010.94 1010.72 1010.53 1010.36 1010.23 1010.15 1010.12 1010.15 1010.22 1010.31 1010.42 1010.52 1010.61 1010.69 1010.75 1010.80 1010.85 1010.93 1011.02 1011.14
1012.55 1012.50 1012.52 1012.60 1012.71 1012.81 1012.89 1012.91 1012.87 1012.76 1012.60 1012.40 1012.17 1011.94 1011.69 1011.45 1011.20 1010.95 1010.68 1010.41 1010.15 1009.90 1009.68 1009.52 1009.41 1009.37 1009.38 1009.44 1009.53 1009.64 1009.75 1009.86 1009.95 1010.02 1010.10 1010.17 1010.26 1010.37
1012.46 1012.33 1012.26 1012.26 1012.30 1012.35 1012.39 1012.40 1012.37 1012.29 1012.16 1012.00 1011.82 1011.62 1011.41 1011.18 1010.93 1010.66 1010.36 1010.03 1009.70 1009.36 1009.06 1008.80 1008.60 1008.47 1008.43 1008.45 1008.53 1008.65 1008.79 1008.94 1009.07 1009.20 1009.31 1009.41 1009.51 1009.61
1012.67 1012.46 1012.32 1012.23 1012.20 1012.19 1012.18 1012.15 1012.09 1011.99 1011.87 1011.72 1011.54 1011.35 1011.15 1010.92 1010.65 1010.35 1010.01 1009.63 1009.22 1008.80 1008.40 1008.04 1007.74 1007.53 1007.41 1007.39 1007.45 1007.58 1007.74 1007.93 1008.13 1008.31 1008.48 1008.62 1008.75 1008.87
1013.12 1012.86 1012.66 1012.52 1012.42 1012.34 1012.27 1012.18 1012.07 1011.94 1011.78 1011.60 1011.40 1011.19 1010.96 1010.71 1010.42 1010.09 1009.71 1009.27 1008.79 1008.29 1007.79 1007.33 1006.93 1006.62 1006.42 1006.33 1006.35 1006.46 1006.65 1006.87 1007.12 1007.37 1007.59 1007.79 1007.97 1008.12
1013.71 1013.43 1013.20 1013.02 1012.88 1012.75 1012.62 1012.47 1012.30 1012.10 1011.88 1011.65 1011.40 1011.15 1010.89 1010.60 1010.29 1009.92 1009.50 1009.02 1008.48 1007.91 1007.32 1006.76 1006.26 1005.84 1005.53 1005.35 1005.30 1005.37 1005.54 1005.78 1006.06 1006.35 1006.64 1006.90 1007.13 1007.32
1014.31 1014.04 1013.81 1013.62 1013.45 1013.29 1013.11 1012.91 1012.68 1012.41 1012.13 1011.83 1011.53 1011.23 1010.92 1010.61 1010.27 1009.88 1009.44 1008.93 1008.36 1007.73 1007.07 1006.41 1005.79 1005.24 1004.80 1004.50 1004.34 1004.33 1004.44 1004.66 1004.94 1005.27 1005.60 1005.92 1006.20 1006.44
1014.79 1014.55 1014.35 1014.17 1014.00 1013.82 1013.62 1013.37 1013.08 1012.76 1012.42 1012.06 1011.71 1011.37 1011.04 1010.70 1010.36 1009.98 1009.54 1009.03 1008.44 1007.77 1007.04 1006.29 1005.55 1004.86 1004.27 1003.81 1003.51 1003.37 1003.38 1003.53 1003.79 1004.12 1004.47 1004.83 1005.17 1005.47
1015.09 1014.89 1014.72 1014.57 1014.41 1014.22 1014.00 1013.73 1013.41 1013.05 1012.66 1012.27 1011.88 1011.52 1011.18 1010.86 1010.53 1010.18 1009.77 1009.28 1008.69 1008.00 1007.22 1006.38 1005.51 1004.68 1003.91 1003.27 1002.79 1002.49 1002.37 1002.42 1002.61 1002.91 1003.28 1003.67 1004.05 1004.40
1015.19 1015.03 1014.89 1014.75 1014.61 1014.43 1014.20 1013.91 1013.58 1013.20 1012.79 1012.38 1011.99 1011.63 1011.31 1011.02 1010.73 1010.43 1010.06 1009.61 1009.04 1008.34 1007.52 1006.60 1005.62 1004.63 1003.69 1002.86 1002.18 1001.70 1001.42 1001.35 1001.45 1001.70 1002.06 1002.46 1002.88 1003.28
1015.16 1015.01 1014.89 1014.76 1014.61 1014.43 1014.20 1013.91 1013.57 1013.18 1012.78 1012.38 1012.00 1011.67 1011.38 1011.14 1010.90 1010.66 1010.35 1009.95 1009.41 1008.71 1007.86 1006.88 1005.79 1004.67 1003.56 1002.54 1001.68 1001.01 1000.58 1000.37 1000.38 1000.57 1000.89 1001.30 1001.75 1002.18
1015.07 1014.92 1014.79 1014.65 1014.49 1014.29 1014.05 1013.75 1013.41 1013.03 1012.64 1012.26 1011.91 1011.62 1011.38 1011.18 1011.01 1010.82 1010.57 1010.21 1009.71 1009.03 1008.16 1007.13 1005.97 1004.74 1003.49 1002.33 1001.30 1000.48 999.90 999.57 999.48 999.61 999.90 1000.30 1000.75 1001.20
1015.00 1014.84 1014.67 1014.50 1014.31 1014.08 1013.82 1013.51 1013.17 1012.80 1012.42 1012.07 1011.75 1011.49 1011.29 1011.14 1011.01 1010.87 1010.67 1010.36 1009.89 1009.23 1008.37 1007.33 1006.13 1004.83 1003.51 1002.24 1001.10 1000.17 999.47 999.05 998.88 998.94 999.20 999.57 1000.02 1000.47
1014.99 1014.78 1014.57 1014.35 1014.11 1013.85 1013.55 1013.23 1012.88 1012.52 1012.16 1011.83 1011.54 1011.31 1011.14 1011.02 1010.92 1010.81 1010.65 1010.38 1009.95 1009.33 1008.50 1007.48 1006.29 1004.99 1003.64 1002.34 1001.15 1000.15 999.40 998.90 998.68 998.69 998.89 999.23 999.64 1000.06
1014.99 1014.74 1014.48 1014.20 1013.91 1013.60 1013.28 1012.94 1012.58 1012.23 1011.89 1011.58 1011.31 1011.10 1010.94 1010.84 1010.76 1010.67 1010.53 1010.29 1009.91 1009.34 1008.58 1007.62 1006.49 1005.25 1003.95 1002.68 1001.51 1000.51 999.73 999.21 998.94 998.90 999.05 999.33 999.68 1000.03
1014.92 1014.63 1014.32 1013.99 1013.65 1013.31 1012.97 1012.62 1012.27 1011.94 1011.61 1011.32 1011.07 1010.87 1010.72 1010.62 1010.54 1010.46 1010.34 1010.14 1009.81 1009.32 1008.65 1007.80 1006.79 1005.66 1004.47 1003.29 1002.19 1001.24 1000.49 999.96 999.67 999.58 999.66 999.86 1000.12 1000.38
1014.66 1014.35 1014.01 1013.65 1013.28 1012.93 1012.58 1012.25 1011.92 1011.61 1011.32 1011.06 1010.82 1010.63 1010.49 1010.38 1010.30 1010.22 1010.12 1009.96 1009.69 1009.29 1008.74 1008.03 1007.18 1006.22 1005.19 1004.15 1003.17 1002.31 1001.61 1001.10 1000.78 1000.64 1000.64 1000.75 1000.89 1001.03
1014.13 1013.81 1013.45 1013.09 1012.73 1012.39 1012.07 1011.78 1011.50 1011.24 1010.99 1010.77 1010.56 1010.39 1010.25 1010.14 1010.05 1009.98 1009.90 1009.77 1009.58 1009.28 1008.86 1008.32 1007.65 1006.87 1006.03 1005.17 1004.34 1003.58 1002.95 1002.46 1002.13 1001.93 1001.85 1001.85 1001.87 1001.87
1013.28 1012.97 1012.63 1012.29 1011.97 1011.68 1011.42 1011.19 1010.99 1010.80 1010.62 1010.45 1010.29 1010.14 1010.00 1009.90 1009.81 1009.74 1009.67 1009.59 1009.46 1009.26 1008.98 1008.60 1008.11 1007.53 1006.88 1006.19 1005.51 1004.87 1004.31 1003.86 1003.50 1003.26 1003.09 1002.98 1002.87 1002.75
1012.15 1011.86 1011.56 1011.27 1011.02 1010.81 1010.64 1010.51 1010.40 1010.31 1010.21 1010.11 1009.99 1009.87 1009.75 1009.65 1009.56 1009.48 1009.43 1009.37 1009.30 1009.19 1009.03 1008.79 1008.47 1008.06 1007.59 1007.07 1006.53 1005.99 1005.50 1005.07 1004.71 1004.42 1004.18 1003.97 1003.76 1003.53
1010.82 1010.57 1010.32 1010.11 1009.94 1009.84 1009.78 1009.76 1009.77 1009.77 1009.77 1009.74 1009.68 1009.59 1009.49 1009.38 1009.28 1009.20 1009.14 1009.10 1009.07 1009.03 1008.95 1008.82 1008.64 1008.38 1008.05 1007.66 1007.24 1006.80 1006.37 1005.96 1005.60 1005.27 1004.98 1004.71 1004.43 1004.13
1009.41 1009.20 1009.02 1008.89 1008.83 1008.83 1008.89 1008.99 1009.11 1009.23 1009.31 1009.35 1009.35 1009.29 1009.20 1009.09 1008.98 1008.88 1008.81 1008.77 1008.75 1008.74 1008.72 1008.67 1008.57 1008.41 1008.19 1007.91 1007.58 1007.21 1006.84 1006.46 1006.10 1005.77 1005.46 1005.16 1004.85 1004.53
1008.02 1007.86 1007.74 1007.70 1007.73 1007.85 1008.02 1008.24 1008.47 1008.68 1008.84 1008.95 1008.99 1008.96 1008.88 1008.76 1008.63 1008.52 1008.42 1008.36 1008.34 1008.33 1008.34 1008.33 1008.29 1008.20 1008.05 1007.84 1007.57 1007.27 1006.93 1006.59 1006.26 1005.94 1005.63 1005.34 1005.05 1004.75
Thickness
5750 5749 5748 5748 5748 5747 5744 5740 5732 5724 5726 5732 5735 5739 5738 5736 5733 5730 5728 5726 5724 5722 5721 5720 5718 5716 5714 5713 5711 5709 5707 5706 5705 5704 5703 5702 5702 5701
5746 5744 5744 5744 5743 5743 5741 5739 5736 5728 5723 5728 5731 5734 5734 5732 5729 5726 5724 5722 5720 5718 5717 5715 5713 5712 5710 5708 5706 5705 5703 5701 5700 5699 5699 5698 5698 5697
5741 5740 5739 5739 5737 5737 5737 5734 5731 5728 5721 5724 5727 5729 5728 5726 5724 5722 5720 5718 5716 5715 5713 5711 5709 5707 5706 5704 5702 5701 5699 5697 5696 5695 5694 5694 5693 5693
5736 5734 5734 5735 5733 5732 5730 5728 5726 5726 5721 5717 5719 5720 5720 5720 5719 5717 5716 5715 5713 5711 5710 5708 5706 5704 5702 5700 5698 5697 5695 5693 5692 5691 5690 5689 5689 5688
5732 5730 5729 5729 5727 5726 5724 5723 5722 5722 5719 5715 5714 5715 5714 5715 5713 5712 5711 5709 5709 5707 5705 5704 5702 5700 5697 5695 5694 5692 5690 5689 5687 5687 5686 5685 5684 5683
5728 5727 5726 5725 5723 5721 5720 5718 5717 5715 5713 5711 5709 5709 5708 5708 5706 5703 5702 5702 5702 5701 5700 5698 5697 5695 5692 5691 5689 5688 5686 5684 5683 5682 5681 5680 5679 5678
5722 5722 5722 5722 5720 5718 5717 5715 5712 5710 5707 5705 5703 5702 5701 5699 5697 5697 5695 5694 5694 5694 5692 5692 5690 5689 5686 5685 5684 5683 5681 5680 5679 5678 5677 5676 5674 5673
5716 5716 5717 5716 5715 5713 5713 5711 5709 5706 5702 5700 5698 5696 5695 5694 5693 5690 5687 5685 5683 5688 5685 5684 5684 5683 5682 5681 5680 5679 5677 5676 5675 5673 5672 5671 5670 5668
5710 5710 5711 5712 5710 5709 5708 5707 5706 5704 5702 5698 5695 5693 5692 5691 5688 5684 5682 5680 5679 5682 5679 5677 5679 5677 5678 5677 5677 5675 5674 5672 5671 5669 5668 5666 5665 5663
5705 5704 5704 5703 5703 5702 5702 5701 5700 5699 5699 5697 5694 5692 5691 5689 5685 5682 5679 5677 5677 5677 5675 5670 5672 5672 5674 5673 5673 5672 5671 5669 5667 5665 5663 5662 5660 5658
5699 5699 5698 5697 5696 5695 5695 5693 5693 5693 5693 5692 5690 5688 5686 5684 5681 5676 5672 5669 5667 5668 5669 5666 5666 5666 5667 5668 5668 5668 5666 5665 5663 5661 5659 5657 5655 5653
5692 5692 5691 5690 5689 5688 5687 5687 5685 5685 5685 5685 5683 5682 5680 5678 5675 5671 5668 5663 5661 5660 5663 5661 5660 5659 5657 5661 5663 5662 5660 5659 5657 5655 5654 5652 5650 5647
5684 5685 5685 5683 5682 5681 5680 5680 5680 5679 5678 5677 5676 5675 5673 5671 5669 5667 5665 5662 5658 5656 5658 5657 5654 5653 5651 5652 5654 5655 5655 5653 5652 5650 5649 5647 5644 5642
5677 5678 5678 5676 5675 5674 5673 5673 5673 5671 5670 5669 5668 5666 5665 5663 5663 5662 5661 5659 5657 5655 5654 5653 5650 5648 5647 5645 5646 5648 5648 5648 5647 5646 5644 5642 5638 5637
5671 5670 5669 5668 5668 5667 5667 5667 5665 5664 5662 5660 5658 5658 5658 5657 5657 5655 5654 5653 5652 5651 5650 5648 5646 5645 5643 5641 5640 5641 5640 5640 5640 5639 5638 5636 5633 5630
5664 5663 5662 5662 5661 5661 5661 5660 5659 5657 5655 5653 5652 5652 5651 5650 5648 5648 5646 5644 5642 5641 5642 5641 5640 5638 5636 5637 5636 5634 5634 5632 5633 5632 5631 5630 5629 5627
5655 5655 5655 5655 5655 5654 5654 5653 5651 5650 5648 5647 5646 5644 5643 5641 5641 5640 5638 5636 5633 5631 5631 5632 5632 5631 5630 5629 5627 5627 5626 5625 5626 5625 5623 5622 5622 5622
5648 5649 5649 5649 5648 5647 5646 5645 5644 5642 5641 5640 5639 5637 5635 5634 5633 5632 5630 5628 5626 5625 5623 5623 5623 5621 5621 5621 5622 5620 5619 5618 5618 5618 5618 5615 5614 5614
5643 5644 5644 5643 5642 5641 5639 5638 5636 5635 5634 5633 5632 5631 5629 5628 5626 5624 5623 5620 5618 5617 5616 5615 5614 5613 5610 5610 5613 5613 5612 5611 5611 5610 5610 5609 5608 5608
5638 5638 5637 5636 5635 5634 5632 5631 5629 5628 5626 5625 5624 5624 5623 5621 5618 5616 5615 5613 5611 5609 5608 5607 5606 5604 5602 5602 5603 5604 5605 5605 5604 5603 5603 5602 5601 5600
5632 5632 5631 5630 5629 5627 5625 5623 5622 5620 5619 5618 5617 5616 5615 5614 5611 5610 5608 5605 5603 5602 5600 5599 5598 5598 5597 5597 5596 5596 5597 5597 5597 5596 5596 5594 5593 5591
5626 5626 5625 5623 5621 5619 5617 5615 5614 5613 5612 5611 5610 5609 5608 5606 5605 5603 5601 5599 5597 5595 5594 5593 5592 5591 5589 5587 5587 5587 5589 5589 5588 5588 5587 5588 5586 5584
5619 5619 5618 5616 5614 5612 5610 5608 5607 5607 5606 5604 5603 5601 5600 5599 5597 5596 5594 5592 5591 5589 5586 5585 5584 5582 5581 5580 5579 5579 5580 5580 5579 5578 5578 5579 5580 5579